Location: Nag� el Ma?a??a
(24.0667°N, 32.8833°E)
Time: 17:12:42
(UTC+00:00)

Lacrosse 5 - Pass Details

Date: 25 September 2021
Orbit: 714 x 724 km, 57.0° (Epoch: 28 August)

Event Time Altitude Azimuth Distance (km) Brightness Sun altitude
Exits shadow 02:43:08 - 214° (SW) 2,603 4.4 -13.4°
Reaches altitude 10° 02:44:10 10° 214° (SW) 2,202 4.0 -13.1°
Maximum altitude 02:49:15 87° 303° (WNW) 725 1.8 -12.0°
Drops below altitude 10° 02:54:21 10° 33° (NNE) 2,204 4.9 -10.8°
Sets 02:56:44 0° 34° (NE) 3,125 5.7 -10.3°
